DLH888X SBGR-KLAS

Flight info

Callsign DLH888X
Flight time N/A
Altitude 34000
Route GERTU UL201 UGAPI/N0500F340 UL201 ORIBO UP527 DADKA UM549 EDRAN/N0495F360 UM549 TBG UM419 AROVI DCT VIVIT DCT BTO DCT DASMO UM206 COFRE/N0487F380 UM206 SESNO DCT MOV UT3 URKOM DCT NABOB J231 DRK ISHEE2
Aircraft B77W/H-SDE1E2E3FGHIJ2J3J4J5M1RWXY/LB1D1

Departure

Time N/A
Airport São Paulo/Guarulhos–Governor André Franco Montoro International Airport (SBGR)

Arrival

Time 2026-05-03 20:27
Airport Harry Reid International Airport (KLAS)
Time Latitude Longitude Altitude Speed Heading
2026-05-03 20:15 35.87564 -114.36569 8646 ft 296 kts 302°
2026-05-03 20:15 35.88706 -114.38646 8253 ft 283 kts 302°
2026-05-03 20:15 35.89772 -114.40586 7976 ft 266 kts 302°
2026-05-03 20:15 35.90767 -114.42400 7996 ft 254 kts 302°
2026-05-03 20:16 35.91750 -114.44197 8033 ft 252 kts 302°
2026-05-03 20:16 35.92744 -114.46014 8010 ft 255 kts 302°
2026-05-03 20:16 35.93735 -114.47825 8019 ft 254 kts 302°
2026-05-03 20:16 35.94733 -114.49649 8195 ft 255 kts 302°
2026-05-03 20:17 35.95729 -114.51471 8200 ft 256 kts 302°
2026-05-03 20:17 35.96727 -114.53296 8203 ft 257 kts 302°
2026-05-03 20:17 35.97723 -114.55119 8207 ft 256 kts 302°
2026-05-03 20:17 35.98726 -114.56956 8211 ft 256 kts 302°
2026-05-03 20:18 35.99730 -114.58794 8216 ft 256 kts 302°
2026-05-03 20:18 36.00726 -114.60622 8220 ft 257 kts 302°
2026-05-03 20:18 36.01726 -114.62455 8222 ft 254 kts 302°
2026-05-03 20:18 36.02670 -114.64182 8188 ft 235 kts 302°
2026-05-03 20:19 36.03540 -114.65776 8183 ft 217 kts 301°
2026-05-03 20:19 36.04378 -114.67321 8177 ft 220 kts 301°
2026-05-03 20:19 36.05218 -114.68870 8012 ft 221 kts 301°
2026-05-03 20:19 36.06070 -114.70439 7828 ft 220 kts 301°
2026-05-03 20:20 36.06892 -114.72003 7648 ft 216 kts 295°
2026-05-03 20:20 36.07250 -114.73724 7420 ft 208 kts 268°
2026-05-03 20:20 36.07271 -114.75488 7247 ft 208 kts 267°
2026-05-03 20:20 36.07307 -114.77227 6795 ft 205 kts 266°
2026-05-03 20:21 36.07324 -114.78947 6445 ft 202 kts 266°
2026-05-03 20:21 36.07335 -114.80657 6102 ft 201 kts 266°
2026-05-03 20:21 36.07344 -114.82333 5805 ft 199 kts 266°
2026-05-03 20:21 36.07341 -114.84029 5567 ft 199 kts 265°
2026-05-03 20:22 36.07327 -114.85726 5321 ft 199 kts 266°
2026-05-03 20:22 36.07330 -114.87427 5076 ft 199 kts 266°
2026-05-03 20:22 36.07335 -114.89125 4922 ft 193 kts 266°
2026-05-03 20:22 36.07344 -114.90706 4668 ft 179 kts 266°
2026-05-03 20:23 36.07351 -114.92232 4296 ft 176 kts 266°
2026-05-03 20:23 36.07358 -114.93722 3981 ft 171 kts 266°
2026-05-03 20:23 36.07363 -114.95194 3753 ft 171 kts 266°
2026-05-03 20:23 36.07356 -114.96664 3584 ft 171 kts 266°
2026-05-03 20:24 36.07357 -114.98135 3439 ft 172 kts 266°
2026-05-03 20:24 36.07361 -114.99604 3212 ft 171 kts 266°
2026-05-03 20:24 36.07368 -115.01035 3071 ft 169 kts 265°
2026-05-03 20:24 36.07367 -115.02456 2943 ft 169 kts 267°
2026-05-03 20:25 36.07361 -115.03851 2768 ft 157 kts 269°
2026-05-03 20:25 36.07362 -115.05113 2580 ft 143 kts 269°
2026-05-03 20:25 36.07360 -115.06332 2413 ft 142 kts 270°
2026-05-03 20:25 36.07355 -115.07558 2411 ft 144 kts 270°
2026-05-03 20:26 36.07331 -115.08786 2396 ft 147 kts 271°
2026-05-03 20:26 36.07329 -115.10064 2372 ft 149 kts 274°
2026-05-03 20:26 36.07355 -115.11338 2290 ft 150 kts 271°
2026-05-03 20:26 36.07359 -115.12610 2140 ft 149 kts 272°
2026-05-03 20:27 36.07378 -115.13852 2092 ft 130 kts 270°
2026-05-03 20:27 36.07371 -115.14658 2117 ft 50 kts 270°
2026-05-03 20:27 36.07405 -115.14898 2126 ft 25 kts 293°
2026-05-03 20:27 36.07445 -115.14997 2129 ft 0 kts 300°
2026-05-03 20:29 36.07447 -115.15002 2129 ft 3 kts 300°
2026-05-03 20:29 36.07483 -115.15067 2131 ft 14 kts 310°
2026-05-03 20:30 36.07588 -115.15182 2133 ft 26 kts 329°
2026-05-03 20:30 36.07797 -115.15292 2133 ft 38 kts 335°
2026-05-03 20:30 36.08033 -115.15426 2133 ft 36 kts 335°
2026-05-03 20:30 36.08179 -115.15427 2129 ft 17 kts
2026-05-03 20:31 36.08243 -115.15382 2127 ft 5 kts 65°
2026-05-03 20:31 36.08248 -115.15369 2126 ft 0 kts 66°